TimeCDT,TemperatureF,Dew PointF,Humidity,Sea Level PressureIn,VisibilityMPH,Wind Direction,Wind SpeedMPH,Gust SpeedMPH,PrecipitationIn,Events,Conditions,WindDirDegrees,DateUTC
12:15 AM,29.7,28.4,95,29.76,1.8,North,16.1,21.9,N/A,Snow,Light Snow,350,2013-03-25 05:15:00
12:35 AM,29.3,27.3,92,29.76,2.5,North,15.0,20.7,N/A,,Unknown,360,2013-03-25 05:35:00
12:55 AM,29.1,26.8,91,29.76,3.0,North,15.0,18.4,N/A,Snow,Light Snow,360,2013-03-25 05:55:00
1:15 AM,28.9,26.6,91,29.77,3.0,North,9.2,-,N/A,,Unknown,350,2013-03-25 06:15:00
1:35 AM,29.3,25.5,86,29.77,5.0,North,13.8,-,N/A,,Unknown,350,2013-03-25 06:35:00
1:55 AM,28.9,26.1,89,29.77,2.5,North,11.5,18.4,N/A,,Unknown,350,2013-03-25 06:55:00
2:15 AM,28.4,25.7,90,29.77,3.0,North,13.8,-,N/A,,Unknown,350,2013-03-25 07:15:00
2:35 AM,28.4,26.2,92,29.78,3.0,North,10.4,-,N/A,,Unknown,350,2013-03-25 07:35:00
2:55 AM,28.4,26.1,91,29.78,3.0,North,12.7,-,N/A,Snow,Light Snow,350,2013-03-25 07:55:00
3:15 AM,28.0,26.1,92,29.77,2.5,North,10.4,-,N/A,,Unknown,350,2013-03-25 08:15:00
3:35 AM,28.4,25.7,90,29.77,3.0,NNW,8.1,-,N/A,,Unknown,340,2013-03-25 08:35:00
3:55 AM,28.2,25.3,89,29.77,3.0,NNW,11.5,-,N/A,,Unknown,330,2013-03-25 08:55:00
4:15 AM,27.9,25.5,91,29.77,5.0,NNW,6.9,-,N/A,,Unknown,330,2013-03-25 09:15:00
4:35 AM,28.4,24.3,84,29.77,10.0,NNW,9.2,-,N/A,,Unknown,340,2013-03-25 09:35:00
4:55 AM,29.1,23.0,78,29.78,10.0,North,9.2,-,N/A,,Unknown,350,2013-03-25 09:55:00
5:15 AM,29.1,22.6,77,29.78,10.0,NNW,11.5,-,N/A,,Unknown,340,2013-03-25 10:15:00
5:35 AM,28.9,22.3,76,29.79,10.0,North,11.5,-,N/A,,Unknown,350,2013-03-25 10:35:00
5:55 AM,28.4,22.1,77,29.79,10.0,North,12.7,-,N/A,,Unknown,350,2013-03-25 10:55:00
6:15 AM,28.4,22.1,77,29.80,10.0,North,15.0,20.7,N/A,,Unknown,350,2013-03-25 11:15:00
6:35 AM,28.4,21.7,76,29.80,10.0,NNW,13.8,19.6,N/A,,Unknown,340,2013-03-25 11:35:00
6:55 AM,28.2,21.7,77,29.81,10.0,NNW,12.7,17.3,N/A,,Unknown,340,2013-03-25 11:55:00
7:15 AM,28.2,21.6,76,29.82,10.0,NNW,11.5,-,N/A,,Unknown,340,2013-03-25 12:15:00
7:35 AM,28.0,21.6,77,29.83,10.0,North,11.5,19.6,N/A,,Unknown,350,2013-03-25 12:35:00
7:55 AM,28.0,21.6,77,29.83,10.0,NNW,12.7,21.9,N/A,,Unknown,340,2013-03-25 12:55:00
8:15 AM,28.0,21.7,77,29.84,10.0,NNW,11.5,-,N/A,,Unknown,340,2013-03-25 13:15:00
8:35 AM,28.0,22.1,78,29.86,7.0,NNW,13.8,-,N/A,,Unknown,340,2013-03-25 13:35:00
8:55 AM,28.4,22.3,78,29.86,10.0,NNW,10.4,17.3,N/A,,Unknown,340,2013-03-25 13:55:00
9:15 AM,28.8,22.6,78,29.87,7.0,North,16.1,20.7,N/A,Snow,Light Snow,350,2013-03-25 14:15:00
9:35 AM,28.4,23.0,80,29.88,5.0,NNW,12.7,19.6,N/A,Snow,Light Snow,340,2013-03-25 14:35:00
9:55 AM,28.9,23.0,78,29.88,7.0,North,12.7,-,N/A,Snow,Light Snow,350,2013-03-25 14:55:00
10:15 AM,29.3,23.0,77,29.89,10.0,NNW,10.4,-,N/A,,Unknown,340,2013-03-25 15:15:00
10:35 AM,30.0,22.8,75,29.90,10.0,NNW,12.7,-,N/A,,Freezing Rain,340,2013-03-25 15:35:00
10:55 AM,30.7,22.6,72,29.91,10.0,North,15.0,-,N/A,,Unknown,350,2013-03-25 15:55:00
11:15 AM,31.3,23.5,73,29.91,10.0,NNW,16.1,-,N/A,,Unknown,340,2013-03-25 16:15:00
11:35 AM,32.0,23.9,72,29.92,10.0,NNW,15.0,20.7,N/A,,Unknown,340,2013-03-25 16:35:00
11:55 AM,32.0,23.9,72,29.92,10.0,NNW,15.0,23.0,N/A,,Unknown,330,2013-03-25 16:55:00
12:15 PM,32.2,24.4,73,29.93,10.0,NNW,15.0,23.0,N/A,,Unknown,340,2013-03-25 17:15:00
12:35 PM,32.9,25.3,74,29.93,10.0,NNW,15.0,19.6,N/A,,Unknown,340,2013-03-25 17:35:00
12:55 PM,32.5,25.3,75,29.93,10.0,NW,13.8,18.4,N/A,,Unknown,320,2013-03-25 17:55:00
1:15 PM,33.4,25.9,74,29.93,10.0,NNW,13.8,19.6,N/A,,Unknown,340,2013-03-25 18:15:00
1:35 PM,34.0,26.1,73,29.93,10.0,NNW,15.0,20.7,N/A,,Unknown,330,2013-03-25 18:35:00
1:55 PM,34.2,25.5,71,29.94,10.0,NNW,12.7,21.9,N/A,,Unknown,330,2013-03-25 18:55:00
2:15 PM,34.9,25.7,69,29.94,10.0,NNW,12.7,21.9,N/A,,Unknown,330,2013-03-25 19:15:00
2:35 PM,34.3,26.2,72,29.94,10.0,NNW,16.1,24.2,N/A,,Unknown,330,2013-03-25 19:35:00
2:55 PM,34.3,26.4,73,29.95,10.0,NNW,16.1,24.2,N/A,,Unknown,340,2013-03-25 19:55:00
3:15 PM,34.7,26.6,72,29.96,10.0,NNW,16.1,21.9,N/A,,Unknown,340,2013-03-25 20:15:00
3:35 PM,34.7,26.4,72,29.96,10.0,NNW,17.3,21.9,N/A,,Unknown,330,2013-03-25 20:35:00
3:55 PM,34.7,26.1,71,29.97,10.0,NNW,13.8,19.6,N/A,,Unknown,340,2013-03-25 20:55:00
4:15 PM,34.9,25.7,69,29.98,10.0,North,13.8,19.6,N/A,,Unknown,350,2013-03-25 21:15:00
4:35 PM,34.9,26.1,70,29.99,10.0,NNW,12.7,18.4,N/A,,Unknown,330,2013-03-25 21:35:00
4:55 PM,35.1,25.5,68,30.00,10.0,NNW,13.8,19.6,N/A,,Unknown,330,2013-03-25 21:55:00
5:15 PM,34.7,25.7,70,30.01,10.0,NNW,13.8,-,N/A,,Unknown,330,2013-03-25 22:15:00
5:35 PM,34.7,25.5,69,30.01,10.0,NNW,11.5,-,N/A,,Unknown,330,2013-03-25 22:35:00
5:55 PM,34.5,25.0,68,30.02,10.0,NNW,11.5,-,N/A,,Unknown,340,2013-03-25 22:55:00
6:15 PM,34.3,25.2,69,30.03,10.0,NNW,12.7,-,N/A,,Unknown,340,2013-03-25 23:15:00
6:35 PM,34.2,25.2,70,30.04,10.0,NNW,12.7,-,N/A,,Unknown,340,2013-03-25 23:35:00
6:55 PM,33.8,25.2,71,30.05,10.0,NNW,11.5,-,N/A,,Unknown,340,2013-03-25 23:55:00
7:15 PM,33.8,25.2,71,30.06,10.0,North,11.5,16.1,N/A,,Unknown,350,2013-03-26 00:15:00
7:35 PM,33.6,25.5,72,30.07,10.0,North,8.1,-,N/A,,Unknown,350,2013-03-26 00:35:00
7:55 PM,33.4,25.5,73,30.08,10.0,NNW,8.1,-,N/A,,Unknown,340,2013-03-26 00:55:00
8:15 PM,33.3,25.5,73,30.08,10.0,North,6.9,-,N/A,,Unknown,350,2013-03-26 01:15:00
8:35 PM,33.3,25.7,74,30.09,10.0,NNW,6.9,-,N/A,,Unknown,340,2013-03-26 01:35:00
8:55 PM,33.3,25.5,73,30.10,10.0,NNW,6.9,-,N/A,,Unknown,340,2013-03-26 01:55:00
9:15 PM,33.1,25.7,74,30.10,10.0,NNW,6.9,-,N/A,,Unknown,340,2013-03-26 02:15:00
9:35 PM,33.1,25.2,73,30.11,10.0,NNW,6.9,-,N/A,,Unknown,340,2013-03-26 02:35:00
9:55 PM,33.1,25.0,72,30.11,10.0,NNW,5.8,-,N/A,,Unknown,340,2013-03-26 02:55:00
10:15 PM,33.1,25.0,72,30.12,10.0,North,6.9,-,N/A,,Unknown,350,2013-03-26 03:15:00
10:35 PM,32.9,25.0,73,30.12,10.0,NNW,4.6,-,N/A,,Unknown,340,2013-03-26 03:35:00
10:55 PM,32.9,25.2,73,30.12,10.0,Calm,Calm,-,N/A,,Unknown,0,2013-03-26 03:55:00
11:15 PM,32.5,25.5,75,30.12,10.0,NW,4.6,-,N/A,,Unknown,310,2013-03-26 04:15:00
11:35 PM,32.7,25.3,74,30.13,10.0,NW,4.6,-,N/A,,Unknown,310,2013-03-26 04:35:00
11:55 PM,32.5,25.9,76,30.13,10.0,NW,6.9,-,N/A,,Unknown,320,2013-03-26 04:55:00